Retour au catalogue

CONNECTA IOT-7

ActifCommunicationsSSO
NORAD 62715·PAYLOAD·🇹🇷 Turkey

Lancé Jan 14, 2025 depuis Vandenberg Space Force Base

Loading…

Prochains Passages (prochaines 24 heures)

TLE

FraisSource: Space-Track

Époque: Sep 14, 2026, 16:49 UTC

1 62715U 25009DL  26257.70129550  .00001922  00000-0  18389-3 0  9994
2 62715  97.7023 334.7979 0000464 156.0416 204.0826 14.94371712 90718

Suivez CONNECTA IOT-7 en temps réel avec AllMySat

Download on the App Store